TimeGMT,TemperatureF,Dew PointF,Humidity,Sea Level PressureIn,VisibilityMPH,Wind Direction,Wind SpeedMPH,Gust SpeedMPH,PrecipitationIn,Events,Conditions,WindDirDegrees,DateUTC
12:00 AM,35,35,99,30.65,,NNE,6.7,,,,,20,2013-02-28 00:00:00
6:00 AM,33,33,100,30.61,0,NNE,8.9,,,Fog,Heavy Fog,20,2013-02-28 06:00:00
8:00 AM,33.8,33.8,100,30.57,0.2,NE,6.9,-,N/A,Fog,Fog,40,2013-02-28 08:00:00
8:30 AM,33.8,33.8,100,30.57,0.2,NE,8.1,-,N/A,Fog,Fog,40,2013-02-28 08:30:00
9:00 AM,35.6,35.6,100,30.57,0.2,NE,8.1,-,N/A,Fog,Fog,40,2013-02-28 09:00:00
9:30 AM,35.6,33.8,93,30.57,0.2,NE,6.9,-,N/A,Fog,Fog,40,2013-02-28 09:30:00
10:00 AM,35.6,35.6,100,30.57,0.1,NE,5.8,-,N/A,Fog,Fog,40,2013-02-28 10:00:00
10:30 AM,37.4,35.6,93,30.57,0.2,NNE,5.8,-,N/A,Fog,Fog,30,2013-02-28 10:30:00
11:00 AM,37.4,37.4,100,30.57,1.6,NE,5.8,-,N/A,,Overcast,40,2013-02-28 11:00:00
11:30 AM,37.4,37.4,100,30.57,0.9,ENE,4.6,-,N/A,Fog,Overcast,60,2013-02-28 11:30:00
12:00 PM,39,38,95,30.60,6,NE,6.7,,,,Mist,40,2013-02-28 12:00:00
12:00 PM,39.2,37.4,93,30.57,5.6,NE,5.8,-,N/A,,Overcast,40,2013-02-28 12:00:00
12:30 PM,41.0,37.4,87,30.54,6.2,NE,6.9,-,N/A,,Overcast,50,2013-02-28 12:30:00
1:00 PM,41.0,37.4,87,30.54,6.2,NE,6.9,-,N/A,,Overcast,40,2013-02-28 13:00:00
1:30 PM,42.8,37.4,81,30.54,6.2,NNE,6.9,-,N/A,,Mostly Cloudy,30,2013-02-28 13:30:00
2:00 PM,42.8,37.4,81,30.54,6.2,NE,8.1,-,N/A,,Mostly Cloudy,40,2013-02-28 14:00:00
2:30 PM,42.8,39.2,87,30.54,6.2,NNE,8.1,-,N/A,,Mostly Cloudy,30,2013-02-28 14:30:00
3:00 PM,42.8,37.4,81,30.54,6.2,NNE,8.1,-,N/A,,Mostly Cloudy,20,2013-02-28 15:00:00
3:30 PM,44.6,39.2,81,30.51,6.2,North,6.9,-,N/A,,Mostly Cloudy,10,2013-02-28 15:30:00
4:00 PM,44.6,39.2,81,30.51,6.2,North,6.9,-,N/A,,Mostly Cloudy,10,2013-02-28 16:00:00
4:30 PM,46.4,39.2,76,30.51,6.2,NNE,8.1,-,N/A,,Scattered Clouds,20,2013-02-28 16:30:00
5:00 PM,44.6,39.2,81,30.51,6.2,North,6.9,-,N/A,,Mostly Cloudy,10,2013-02-28 17:00:00
6:00 PM,44,40,82,30.55,9,NNE,8.9,,,,Mist,20,2013-02-28 18:00:00
6:00 PM,42.8,41.0,93,30.51,6.2,NNE,9.2,-,N/A,,Scattered Clouds,20,2013-02-28 18:00:00
7:00 PM,41.0,39.2,93,30.51,6.2,NNE,9.2,-,N/A,,Scattered Clouds,20,2013-02-28 19:00:00